ONEWEB-0701, 61607

Orbit data source: Space-Track

ONEWEB-0701, 61607 is a payload satellite owned by Eut. One Web (UK) in LEO that was launched on Sun, 20 Oct 2024 UTC via an FALCON 9 launch vehicle from the Air Force Western Test Range (AFWTR). Payload-class satellites include a variety of spacecraft equipped with specific instruments for various scientific and technological missions. These include communications satellites like Starlink; space stations such as the ISS; scientific satellites like the Hubble; Earth observation satellites from companies like Planet Labs, Umbra, and HawkEye 360; GPS; miniature CubeSats for education and research; and military/defense satellites.

Loading next visibility...
Identifier
61607, 2024-188P
Orbit
LEO
Last TLE update
1 day ago
Origin
Manufacturer
One Web
Mission
Operational Commercial Communications
Bus & Motor
ARROW, Unknown motor
Mass
148 kg wet, ~140 kg dry
Launch date (UTC)
2024-10-20 (8 months ago)
Launch vehicle
FALCON 9
Launch site
Air Force Western Test Range (AFWTR)
Object type
Payload
Rocket body
Debris
Shape & HBR
Trap Box + 2 Pan, 5 m
Radar Cross Section
2.032 m², Large (>1 m²)

Expand to show TLE details & history

TLE from 1 day ago
0 ONEWEB-0701
1 61607U 24188P   25172.52095201  .00000042  00000-0  83720-4 0  9994
2 61607  87.8819 108.1833 0002890  81.0091 279.1363 13.10370010 36078
Epoch: 2025-06-21T12:30Z
TLE epoch observation values (Epoch: 2025-06-21T12:30:10.253Z)
Latitude
-0.00007°
Longitude
10.68183°
Altitude
1,224.267 km
Speed
7.242 km/s
True Right ascension
07h 12m 43s
True Declination
0° 00' 00"
Sunlit
Object was in daylight at epoch
Visualization orbit readout
Latitude
-9.99628°
Longitude
10.09776°
Altitude
1,226.383 km
Speed
7.241 km/s
Apparent Right ascension
09h 23m 02s
Apparent Declination
-31° 00' 46"
Sunlit
Object is in daylight
Visualization observer readout
Local Sidereal Time
01:10:04
Azimuth
97.447° ESE
Elevation
-43.706°
Doppler factor
1
Orbital elements
Apogee altitude
1,221.043 km
Perigee altitude
1,216.652 km
Semi-major axis
7,596.985 km
Eccentricity
0.00029
Inclination
87.8819°
RAAN
108.1833°
Arg. of periapsis
81.0091°
True anomaly
Unknown
Mean anomaly
279.1363°
Eccentric anomaly
Unknown
Mean motion
3.27779 °/min
Orbital period
109.83 mins
BSTAR
0.00008372
Loading maneuver chart data...
Loading SW <> Apogee altitude chart data...
Loading historical data...
Loading historical data...
Loading historical data...
Loading historical data...
Loading historical data...
Loading historical data...
Loading historical data...

ONEWEB-0701 Visibility forecast

Observer location: undefined°, undefined°

Span
Click to sort rows by Start time (UTC) header in descending order
Start Az.
Max El. time (UTC)
Max El. Az.
Max El.
End time (UTC)
End Az.
14 mins2025-06-22 19:44:30.194Z164.867° S2025-06-22 19:51:30.194Z91.071° ESE42.008°2025-06-22 19:58:30.194Z7.373° NNE
9 mins2025-06-22 21:38:30.194Z247.528° W2025-06-22 21:42:30.194Z288.21° WNW20.881°2025-06-22 21:47:30.194Z332.396° NNW
12 mins2025-06-23 07:16:30.194Z15.098° NNE2025-06-23 07:21:30.194Z77.453° E38.143°2025-06-23 07:28:30.194Z159.113° S
10 mins2025-06-23 09:06:30.194Z331.233° NNW2025-06-23 09:11:30.194Z280.127° WNW25.201°2025-06-23 09:16:30.194Z231.746° WSW
|